Location: Huppendorf
(49.9333°N, 11.1500°E)
Time: 09:14:52
(UTC+00:00)

STARLINK-48 - Pass Details

Date: 27 February 2020
Orbit: 506 x 507 km, 53.0° (Epoch: 28 March)

Event Time Altitude Azimuth Distance (km) Brightness Sun altitude
Rises 17:20:23 0° 283° (WNW) 2,612 8.7 -5.1°
Reaches altitude 10° 17:22:37 10° 288° (WNW) 1,727 7.4 -5.5°
Maximum altitude 17:26:28 55° 7° (N) 615 3.8 -6.1°
Drops below altitude 10° 17:30:18 10° 86° (E) 1,727 5.5 -6.7°
Enters shadow 17:30:35 - 87° (E) 1,833 5.6 -6.8°
